Retour au catalogue

DELTA 1 DEB

ActifSSO
NORAD 10825·DEBRIS·🇺🇸 United States

Lancé Jul 29, 1976 depuis Vandenberg Space Force Base

Loading…

Prochains Passages (prochaines 24 heures)

TLE

FraisSource: Space-Track

Époque: Sep 14, 2026, 09:34 UTC

1 10825U 76077BV  26257.39870998 -.00000004  00000-0  32738-3 0  9999
2 10825 102.2922 217.7938 0044716  40.5666 113.5211 12.34780799258304

Suivez DELTA 1 DEB en temps réel avec AllMySat

Download on the App Store